Content
SEND FEEDBACK

Daily
Averages
Monthly
Summary
The Bahamas

NASSAU, THE BAHAMAS


Home > Caribbean > The Bahamas
Elevation: 23 feet     Latitude: 25 03N     Longitude: 077 28W

WEATHER
 
SELECT A DAY
Number of Records: 162,312;   Date Range: 6/30/96 - 10/29/14
 
SHARE

PRINT THIS DATA

[ ← Previous Day ]
WEATHER ALMANAC - JANUARY 17, 2013
[ Next Day → ]
[ °C ]   °F
Weather ElementAverageHighLow
Temperature69.4 °F78.8 °F (11:00 am) (1:55 am)
Dewpoint64.2 °F70 °F (1:00 am) (7:00 pm)
Humidity82.1 %94 % (1:00 am)69 % (12:00 pm)
Barometer30.07 in30.13 in (10:00 am)30.02 in (2:00 pm)
Wind Speed2.6 mph10.4 mph (2:00 pm)
Weather ElementAverage
Visibility6.7 mi
Wind DirectionENE (68 °)

Weather ElementTotal
Precipitation---
Heating Degree Days25.6 (Base 65)
Averaged from 30 records on January 17, 2013
WEATHER CONDITIONS BREAKOUT
WIND DIRECTION BREAKOUT
WEATHER BY HOUR - JANUARY 17, 2013
[ °C ]   °F
Local TimeTemperatureDewpointHumidityBarometerVisibilityWind DirectionWind SpeedGust SpeedPrecipitationEventsConditions
1:00 AM72.0 °F70.0 °F91 %30.08 in8.0 miCalmPartly Cloudy
1:00 AM71.6 °F69.8 °F94 %30.07 in6.2 miCalmScattered Clouds
1:55 AM0.0 °F0.0 °F30.07 in6.2 miCalmScattered Clouds
3:00 AM0.0 °F0.0 °F30.06 in6.2 miCalmScattered Clouds
4:00 AM69.0 °F67.0 °F92 %30.06 in8.0 miCalmPartly Cloudy
4:00 AM69.8 °F68.0 °F94 %30.06 in6.2 miCalmScattered Clouds
5:00 AM69.8 °F66.2 °F88 %30.08 in5.6 miCalmRainLight Rain Showers
6:00 AM69.8 °F68.0 °F94 %30.07 in6.2 miCalmMostly Cloudy
7:00 AM71.0 °F67.0 °F82 %30.09 in8.0 miCalmPartly Cloudy
7:00 AM71.6 °F66.2 °F83 %30.09 in6.2 miCalmScattered Clouds
8:00 AM71.6 °F69.8 °F94 %30.10 in6.2 miESE (120°)3.5 mphRainLight Rain Showers
9:00 AM73.4 °F69.8 °F88 %30.12 in6.2 miESE (110°)2.3 mphMostly Cloudy
10:00 AM77.0 °F70.0 °F74 %30.13 in9.0 miSE (140°)4.6 mph
10:00 AM77.0 °F69.8 °F78 %30.13 in6.2 miSE (140°)4.6 mphMostly Cloudy
11:00 AM78.8 °F69.8 °F74 %30.11 in6.2 miSE (130°)6.9 mphMostly Cloudy
12:00 PM78.8 °F68.0 °F69 %30.08 in6.2 miESE (120°)9.2 mphScattered Clouds
1:00 PM78.8 °F69.8 °F74 %30.04 in6.2 miESE (120°)9.2 mphScattered Clouds
2:00 PM78.8 °F68.0 °F69 %30.02 in6.2 miSE (130°)10.4 mphPartly Cloudy
3:00 PM78.8 °F68.0 °F69 %30.03 in6.2 miSSE (160°)4.6 mphScattered Clouds
4:00 PM78.0 °F70.0 °F70 %30.04 in9.0 miSE (140°)5.8 mphPartly Cloudy
4:00 PM78.8 °F69.8 °F74 %30.04 in6.2 miSE (140°)5.8 mphScattered Clouds
5:00 PM77.0 °F68.0 °F74 %30.05 in6.2 miSSE (160°)4.6 mphScattered Clouds
6:00 PM75.2 °F68.0 °F78 %30.04 in6.2 miEast (90°)4.6 mphPartly Cloudy
7:00 PM75.2 °F69.8 °F83 %30.06 in6.2 miCalmPartly Cloudy
7:00 PM74.0 °F70.0 °F83 %30.07 in9.0 miCalmScattered Clouds
8:00 PM73.4 °F68.0 °F83 %30.08 in6.2 miCalmScattered Clouds
9:00 PM73.4 °F68.0 °F83 %30.09 in6.2 miCalmPartly Cloudy
10:00 PM73.0 °F70.0 °F87 %30.07 in9.0 miCalmPartly Cloudy
10:00 PM73.4 °F69.8 °F88 %30.06 in6.2 miCalmPartly Cloudy
11:00 PM71.6 °F68.0 °F88 %30.06 in6.2 miVariable1.2 mphPartly Cloudy
Hourly data recorded from MYNN, located miles away from Nassau, The Bahamas







STORIES FROM OUR PARTNERS